TimeMST,TemperatureF,Dew PointF,Humidity,Sea Level PressureIn,VisibilityMPH,Wind Direction,Wind SpeedMPH,Gust SpeedMPH,PrecipitationIn,Events,Conditions,WindDirDegrees,DateUTC
12:53 AM,12.0,9.0,88,29.92,10.0,WSW,5.8,-,N/A,,Clear,250,2013-01-08 07:53:00
1:53 AM,10.0,7.0,87,29.91,10.0,West,5.8,-,N/A,,Clear,270,2013-01-08 08:53:00
2:53 AM,9.0,5.0,84,29.90,10.0,South,4.6,-,N/A,,Clear,180,2013-01-08 09:53:00
3:53 AM,9.0,6.1,88,29.90,10.0,West,5.8,-,N/A,,Clear,260,2013-01-08 10:53:00
4:53 AM,9.0,6.1,88,29.91,10.0,Calm,Calm,-,N/A,,Clear,0,2013-01-08 11:53:00
5:53 AM,14.0,10.0,84,29.92,10.0,WNW,3.5,-,N/A,,Clear,290,2013-01-08 12:53:00
6:53 AM,18.0,12.0,78,29.93,10.0,Calm,Calm,-,N/A,,Clear,0,2013-01-08 13:53:00
7:53 AM,28.9,19.0,67,29.94,10.0,WNW,8.1,-,N/A,,Clear,300,2013-01-08 14:53:00
8:53 AM,34.0,21.9,61,29.97,10.0,NW,11.5,-,N/A,,Clear,320,2013-01-08 15:53:00
9:53 AM,37.9,26.1,62,29.98,10.0,NW,11.5,-,N/A,,Clear,310,2013-01-08 16:53:00
10:53 AM,41.0,27.0,57,29.98,10.0,NW,15.0,-,N/A,,Clear,310,2013-01-08 17:53:00
11:53 AM,42.1,27.0,55,29.99,10.0,NW,10.4,-,N/A,,Clear,320,2013-01-08 18:53:00
12:53 PM,44.1,28.0,53,30.00,10.0,NW,11.5,-,N/A,,Clear,310,2013-01-08 19:53:00
1:53 PM,45.0,28.9,53,30.03,10.0,NW,6.9,-,N/A,,Clear,310,2013-01-08 20:53:00
2:53 PM,46.9,28.9,50,30.06,10.0,NNW,3.5,-,N/A,,Clear,330,2013-01-08 21:53:00
3:53 PM,45.0,28.0,52,30.10,10.0,NW,5.8,-,N/A,,Clear,320,2013-01-08 22:53:00
4:53 PM,37.0,28.0,70,30.15,10.0,WNW,4.6,-,N/A,,Clear,300,2013-01-08 23:53:00
5:53 PM,34.0,27.0,75,30.18,10.0,West,4.6,-,N/A,,Clear,280,2013-01-09 00:53:00
6:53 PM,30.0,25.0,82,30.22,10.0,WSW,8.1,-,N/A,,Clear,250,2013-01-09 01:53:00
7:53 PM,30.9,24.1,76,30.21,10.0,WNW,5.8,-,N/A,,Clear,290,2013-01-09 02:53:00
8:53 PM,32.0,24.1,73,30.23,10.0,NW,9.2,-,N/A,,Clear,310,2013-01-09 03:53:00
9:53 PM,33.1,23.0,66,30.24,10.0,NNW,12.7,-,N/A,,Clear,330,2013-01-09 04:53:00
10:53 PM,30.9,23.0,72,30.26,10.0,North,10.4,-,N/A,,Clear,350,2013-01-09 05:53:00
11:53 PM,30.9,23.0,72,30.28,10.0,North,11.5,-,N/A,,Clear,360,2013-01-09 06:53:00